Location: Recife
(8.0585°S, 34.8848°W)
Time: 19:59:10
(UTC-03:00)

Vanguard 2 Rocket - Pass Details

Date: 21 April 2026
Orbit: 553 x 3286 km, 32.9° (Epoch: 13 May)

Event Time Altitude Azimuth Distance (km) Brightness Sun altitude
Exits shadow 03:05:00 30° 142° (SE) 1,527 8.2 -34.1°
Drops below altitude 10° 03:08:42 10° 131° (SE) 2,928 9.9 -33.2°
Sets 03:12:17 0° 127° (SE) 4,310 10.9 -32.4°
